FW7314 Weather Reports


time (UTC)temp
F
wind
direction
speed
knots
gust
knots
rain 1hr
in
rain 24hr
in
rain mn
in
humidity
%
barometer
mb
20260507062422 56 0.0 0.0 0.00 0.00 0.00 76 1021.1
20260507061703 56 0.0 0.0 0.00 0.00 0.00 77 1021.1
20260507061204 56 0.0 0.0 0.00 0.00 0.00 77 1021.2
20260507060704 57 0.0 0.0 0.00 0.00 0.00 77 1021.0
20260507060204 57 0.0 0.0 0.00 0.00 0.00 77 1021.1
20260507055704 57 0.0 0.0 0.00 0.00 0.00 77 1021.1
20260507055203 57 0.0 0.0 0.00 0.00 0.00 76 1020.8
20260507054703 57 0.0 0.0 0.00 0.00 0.00 76 1021.0
20260507054205 57 0.0 0.0 0.00 0.00 0.00 76 1021.0
20260507053704 57 0.0 0.0 0.00 0.00 0.00 77 1021.0
20260507053204 57 0.0 0.0 0.00 0.00 0.00 75 1020.9
20260507053141 57 0.0 0.0 0.00 0.00 0.00 76 1021.0
20260507052423 57 0.0 0.0 0.00 0.00 0.00 76 1020.9
20260507052143 57 0.0 0.0 0.00 0.00 0.00 75 1020.9
20260507051204 57 0.0 0.0 0.00 0.00 0.00 75 1020.9
20260507050705 58 0.0 0.0 0.00 0.00 0.00 75 1020.9
20260507050204 58 0.0 0.0 0.00 0.00 0.00 75 1020.8
20260507045703 58 0.0 0.0 0.00 0.00 0.00 75 1021.0
20260507045203 58 0.0 0.0 0.00 0.00 0.00 74 1020.9
20260507044703 58 0.0 0.0 0.00 0.00 0.00 75 1020.9
20260507044204 58 0.0 0.0 0.00 0.00 0.00 74 1021.0
20260507043705 58 0.0 0.0 0.00 0.00 0.00 74 1021.0
20260507043204 58 0.0 0.0 0.00 0.00 0.00 74 1020.8
20260507042703 58 0.0 0.0 0.00 0.00 0.00 74 1020.7
20260507042203 58 0.0 0.0 0.00 0.00 0.00 74 1020.8
20260507041704 58 0.0 0.0 0.00 0.00 0.00 74 1020.7
20260507041204 59 0.0 0.0 0.00 0.00 0.00 74 1020.6
20260507040704 59 0.0 0.0 0.00 0.00 0.00 74 1020.5
20260507040426 59 0.0 0.0 0.00 0.00 0.00 74 1020.5
20260507035705 59 0.0 0.0 0.00 0.00 0.00 74 1020.5
20260507035203 59 0.0 0.0 0.00 0.00 0.00 73 1020.6
20260507034703 59 0.0 0.0 0.00 0.00 0.00 74 1020.4
20260507034204 59 0.0 0.0 0.00 0.00 0.00 74 1020.4
20260507033704 59 0.0 0.0 0.00 0.00 0.00 73 1020.3
20260507033204 60 0.0 0.0 0.00 0.00 0.00 73 1020.4
20260507032703 60 0.0 0.0 0.00 0.00 0.00 73 1019.8
20260507032423 60 0.0 0.0 0.00 0.00 0.00 72 1020.0
20260507031704 60 0.0 0.0 0.00 0.00 0.00 72 1020.0
20260507031204 61 0.0 0.0 0.00 0.00 0.00 72 1019.7
20260507030704 61 0.0 0.0 0.00 0.00 0.00 72 1019.8
20260507030204 61 0.0 0.0 0.00 0.00 0.00 71 1019.8
20260507025703 61 0.0 0.0 0.00 0.00 0.00 71 1019.6
20260507025432 62 0.0 0.0 0.00 0.00 0.00 71 1019.5
20260507024704 62 0.0 0.0 0.00 0.00 0.00 71 1019.5
20260507024205 62 0.0 0.0 0.00 0.00 0.00 70 1019.6
20260507023704 62 0.0 0.0 0.00 0.00 0.00 70 1019.4
20260507023423 63 0.0 0.0 0.00 0.00 0.00 69 1019.5
20260507022704 63 0.0 0.0 0.00 0.00 0.00 69 1019.4
20260507022203 63 0.0 0.0 0.00 0.00 0.00 69 1019.4
20260507021703 64 0.0 0.0 0.00 0.00 0.00 68 1019.4
20260507021204 64 0.0 0.0 0.00 0.00 0.00 68 1019.3
20260507020704 64 0.0 0.0 0.00 0.00 0.00 68 1019.3
20260507020203 64 0.0 0.0 0.00 0.00 0.00 67 1019.4
20260507015704 65 0.0 0.0 0.00 0.00 0.00 66 1019.4
20260507015203 65 0.0 0.0 0.00 0.00 0.00 66 1019.4
20260507014703 65 0.0 0.0 0.00 0.00 0.00 66 1019.4
20260507014204 65 0.0 0.0 0.00 0.00 0.00 66 1019.4
20260507013703 65 0.0 0.0 0.00 0.00 0.00 66 1019.5
20260507013203 66 0.0 0.0 0.00 0.00 0.00 64 1019.5
20260507012928 66 0.0 0.0 0.00 0.00 0.00 64 1019.6
20260507012203 67 0.0 0.0 0.00 0.00 0.00 64 1019.6
20260507011925 67 0.0 0.0 0.00 0.00 0.00 63 1019.6
20260507011204 68 0.0 0.0 0.00 0.00 0.00 63 1019.5
20260507010704 68 0.0 0.0 0.00 0.00 0.00 61 1019.5
20260507010203 69 0.0 0.0 0.00 0.00 0.00 63 1019.5
20260507005704 69 0.0 0.0 0.00 0.00 0.00 62 1019.6
20260507005204 69 0.0 0.0 0.00 0.00 0.00 63 1019.4
20260507004703 68 0.0 0.0 0.00 0.00 0.00 63 1019.4
20260507004203 68 0.0 0.0 0.00 0.00 0.00 63 1019.5
20260507003704 69 0.0 0.0 0.00 0.00 0.00 63 1019.4
20260507003204 69 0.0 0.0 0.00 0.00 0.00 65 1019.3
20260507002704 69 0.0 0.0 0.00 0.00 0.00 64 1019.4
20260507002203 69 0.0 0.0 0.00 0.00 0.00 63 1019.4
20260507001703 69 0.0 0.0 0.00 0.00 0.00 64 1019.2
20260507001204 69 0.0 0.0 0.00 0.00 0.00 64 1019.2
20260507000704 69 0.0 0.0 0.00 0.00 0.00 65 1019.2
20260507000205 69 0.0 0.0 0.00 0.00 0.00 63 1019.3
20260506235703 70 0.0 0.0 0.00 0.00 0.00 62 1019.3
20260506235204 70 0.0 0.0 0.00 0.00 0.00 63 1019.1
20260506235154 70 0.0 0.0 0.00 0.00 0.00 60 1019.2
20260506234203 70 0.0 0.0 0.00 0.00 0.00 63 1019.2
20260506233704 70 0.0 0.0 0.00 0.00 0.00 62 1019.0
20260506233153 70 0.0 0.0 0.00 0.00 0.00 61 1019.2
20260506232652 71 0.0 0.0 0.00 0.00 0.00 60 1019.1
20260506232140 71 0.0 0.0 0.00 0.00 0.00 60 1019.1
20260506231640 71 0.0 0.0 0.00 0.00 0.00 59 1019.1
20260506231140 71 0.0 0.0 0.00 0.00 0.00 60 1019.4
20260506230640 71 0.0 0.0 0.00 0.00 0.00 62 1019.3
20260506230140 70 0.0 0.0 0.00 0.00 0.00 60 1019.4
20260506225640 70 0.0 0.0 0.00 0.00 0.00 61 1019.3
20260506225403 70 0.0 0.0 0.00 0.00 0.00 61 1019.5
20260506224640 70 0.0 0.0 0.00 0.00 0.00 60 1019.5
20260506224141 70 0.0 0.0 0.00 0.00 0.00 60 1019.7
20260506224126 70 0.0 0.0 0.00 0.00 0.00 59 1019.5
20260506223140 70 0.0 0.0 0.00 0.00 0.00 62 1019.6
20260506222901 70 0.0 0.0 0.00 0.00 0.00 62 1019.4
20260506222140 70 0.0 0.0 0.00 0.00 0.00 60 1019.7
20260506221640 70 0.0 0.0 0.00 0.00 0.00 62 1019.7
20260506221141 70 0.0 0.0 0.00 0.00 0.00 61 1019.6
20260506220641 70 0.0 0.0 0.00 0.00 0.00 61 1019.6
20260506220405 70 0.0 0.0 0.00 0.00 0.00 60 1019.7
20260506215641 70 0.0 0.0 0.00 0.00 0.00 61 1019.7
20260506215140 70 0.0 0.0 0.00 0.00 0.00 61 1019.8
20260506214641 70 0.0 0.0 0.00 0.00 0.00 63 1019.6
20260506214629 70 0.0 0.0 0.00 0.00 0.00 62 1019.7
20260506213640 70 0.0 0.0 0.00 0.00 0.00 62 1019.7
20260506213141 70 0.0 0.0 0.00 0.00 0.00 62 1019.7
20260506212641 69 0.0 0.0 0.00 0.00 0.00 63 1019.7
20260506212140 69 0.0 0.0 0.00 0.00 0.00 64 1019.9
20260506211640 69 0.0 0.0 0.00 0.00 0.00 63 1020.0
20260506211140 69 0.0 0.0 0.00 0.00 0.00 64 1020.1
20260506210852 68 0.0 0.0 0.00 0.00 0.00 66 1020.1
20260506210132 68 0.0 0.0 0.00 0.00 0.00 65 1020.3
20260506205631 67 0.0 0.0 0.00 0.00 0.00 66 1020.3
20260506205131 67 0.0 0.0 0.00 0.00 0.00 66 1020.1
20260506204631 67 0.0 0.0 0.00 0.00 0.00 67 1020.3
20260506204619 67 0.0 0.0 0.00 0.00 0.00 66 1020.3
20260506203631 68 0.0 0.0 0.00 0.00 0.00 67 1020.0
20260506203132 68 0.0 0.0 0.00 0.00 0.00 65 1019.9
20260506202853 68 0.0 0.0 0.00 0.00 0.00 67 1020.1
20260506202131 67 0.0 0.0 0.00 0.00 0.00 69 1020.0
20260506201634 67 0.0 0.0 0.00 0.00 0.00 68 1020.1
20260506201628 67 0.0 0.0 0.00 0.00 0.00 67 1020.0
20260506200848 67 0.0 0.0 0.00 0.00 0.00 67 1020.1
20260506200132 67 0.0 0.0 0.00 0.00 0.00 66 1020.4
20260506195631 67 0.0 0.0 0.00 0.00 0.00 66 1020.4
20260506195351 67 0.0 0.0 0.00 0.00 0.00 67 1020.4
20260506194631 67 0.0 0.0 0.00 0.00 0.00 69 1020.7
20260506194131 66 0.0 0.0 0.00 0.00 0.00 68 1020.7
20260506193631 66 0.0 0.0 0.00 0.00 0.00 68 1020.6
20260506193355 66 0.0 0.0 0.00 0.00 0.00 68 1020.7
20260506192854 66 0.0 0.0 0.00 0.00 0.00 70 1020.7
20260506192131 66 0.0 0.0 0.00 0.00 0.00 71 1020.6
20260506191632 65 0.0 0.0 0.00 0.00 0.00 70 1020.6
20260506191131 64 0.0 0.0 0.00 0.00 0.00 71 1020.6
20260506190629 65 0.0 0.0 0.00 0.00 0.00 71 1020.4
20260506190355 65 0.0 0.0 0.00 0.00 0.00 71 1020.5
20260506185626 64 0.0 0.0 0.00 0.00 0.00 72 1020.6
20260506185127 64 0.0 0.0 0.00 0.00 0.00 72 1020.3
20260506184628 64 0.0 0.0 0.00 0.00 0.00 72 1020.3
20260506184128 64 0.0 0.0 0.00 0.00 0.00 70 1020.4
20260506183628 65 0.0 0.0 0.00 0.00 0.00 70 1020.5
20260506183129 64 0.0 0.0 0.00 0.00 0.00 71 1020.4
20260506182629 64 0.0 0.0 0.00 0.00 0.00 73 1020.1
20260506182128 64 0.0 0.0 0.00 0.00 0.00 72 1020.4
20260506181628 64 0.0 0.0 0.00 0.00 0.00 74 1020.4
20260506181128 63 0.0 0.0 0.00 0.00 0.00 75 1020.5
20260506180628 62 0.0 0.0 0.00 0.00 0.00 75 1020.4
20260506180349 62 0.0 0.0 0.00 0.00 0.00 77 1020.7
20260506175629 61 0.0 0.0 0.00 0.00 0.00 78 1020.6
20260506175128 61 0.0 0.0 0.00 0.00 0.00 78 1020.5
20260506174628 61 0.0 0.0 0.00 0.00 0.00 78 1020.6
20260506174128 61 0.0 0.0 0.00 0.00 0.00 80 1020.7
20260506173628 61 0.0 0.0 0.00 0.00 0.00 79 1020.6
20260506173128 61 0.0 0.0 0.00 0.00 0.00 79 1020.3
20260506172628 61 0.0 0.0 0.00 0.00 0.00 80 1020.4
20260506172353 60 0.0 0.0 0.00 0.00 0.00 80 1020.3
20260506171628 60 0.0 0.0 0.00 0.00 0.00 80 1020.4
20260506171128 60 0.0 0.0 0.00 0.00 0.00 81 1020.1
20260506170629 60 0.0 0.0 0.00 0.00 0.00 81 1020.4
20260506170128 60 0.0 0.0 0.00 0.00 0.00 80 1020.1
20260506165628 60 0.0 0.0 0.00 0.00 0.00 81 1020.3
20260506165128 60 0.0 0.0 0.00 0.00 0.00 80 1020.4
20260506164628 60 0.0 0.0 0.00 0.00 0.00 80 1020.5
20260506164609 60 0.0 0.0 0.00 0.00 0.00 80 1020.4
20260506163851 60 0.0 0.0 0.00 0.00 0.00 79 1020.1
20260506163619 60 0.0 0.0 0.00 0.00 0.00 80 1020.3
20260506162848 59 0.0 0.0 0.00 0.00 0.00 80 1020.3
20260506162128 59 0.0 0.0 0.00 0.00 0.00 80 1020.6
20260506161629 59 0.0 0.0 0.00 0.00 0.00 81 1020.5
20260506161128 59 0.0 0.0 0.00 0.00 0.00 81 1020.1
20260506160628 59 0.0 0.0 0.00 0.00 0.00 81 1019.9
20260506160128 59 0.0 0.0 0.00 0.00 0.00 81 1020.0
20260506155851 59 0.0 0.0 0.00 0.00 0.00 81 1020.0
20260506155128 59 0.0 0.0 0.00 0.00 0.00 82 1019.7
20260506154629 59 0.0 0.0 0.00 0.00 0.00 82 1019.6
20260506154128 59 0.0 0.0 0.00 0.00 0.00 81 1019.8
20260506153628 59 0.0 0.0 0.00 0.00 0.00 82 1019.5
20260506153354 58 0.0 0.0 0.00 0.00 0.00 83 1019.3
20260506152629 58 0.0 0.0 0.00 0.00 0.00 83 1019.4
20260506152128 58 0.0 0.0 0.00 0.00 0.00 83 1019.9
20260506151628 58 0.0 0.0 0.00 0.00 0.00 83 1020.0
20260506151128 58 0.0 0.0 0.00 0.00 0.00 83 1020.1
20260506150629 58 0.0 0.0 0.00 0.00 0.00 83 1020.3
20260506150128 58 0.0 0.0 0.00 0.00 0.00 82 1020.0
20260506145628 58 0.0 0.0 0.00 0.00 0.00 82 1020.1
20260506145129 58 0.0 0.0 0.00 0.00 0.00 82 1020.0
20260506144628 58 0.0 0.0 0.00 0.00 0.00 82 1020.1
20260506144128 58 0.0 0.0 0.00 0.00 0.00 83 1020.1
20260506143628 58 0.0 0.0 0.00 0.00 0.00 82 1019.9
20260506143129 58 0.0 0.0 0.00 0.00 0.00 82 1020.0
20260506142628 58 0.0 0.0 0.00 0.00 0.00 82 1019.9
20260506142129 58 0.0 0.0 0.00 0.00 0.00 82 1019.5
20260506141617 58 0.0 0.0 0.00 0.00 0.00 82 1019.6
20260506141116 58 0.0 0.0 0.00 0.00 0.00 83 1019.2
20260506140617 58 0.0 0.0 0.00 0.00 0.00 83 1019.1
20260506140116 58 0.0 0.0 0.00 0.00 0.00 83 1019.0
20260506135616 58 0.0 0.0 0.00 0.00 0.00 83 1019.3
20260506135117 58 0.0 0.0 0.00 0.00 0.00 83 1019.2
20260506134616 58 0.0 0.0 0.00 0.00 0.00 83 1019.3
20260506134105 58 0.0 0.0 0.00 0.00 0.00 83 1019.2
20260506133605 58 0.0 0.0 0.00 0.00 0.00 83 1019.2
20260506133336 58 0.0 0.0 0.00 0.00 0.00 83 1019.2
20260506133051 58 0.0 0.0 0.00 0.00 0.00 83 1019.1
20260506132105 58 0.0 0.0 0.00 0.00 0.00 83 1019.2
20260506131618 58 0.0 0.0 0.00 0.00 0.00 83 1019.0
20260506131117 57 0.0 0.0 0.00 0.00 0.00 83 1019.0
20260506130824 57 0.0 0.0 0.00 0.00 0.00 84 1018.9
20260506130104 58 0.0 0.0 0.00 0.00 0.00 84 1018.7
20260506125605 58 0.0 0.0 0.00 0.00 0.00 83 1018.7
20260506125105 58 0.0 0.0 0.00 0.00 0.00 83 1018.9
20260506124829 58 0.0 0.0 0.00 0.00 0.00 82 1018.7
20260506124332 58 0.0 0.0 0.00 0.00 0.00 83 1018.4
20260506123604 58 0.0 0.0 0.00 0.00 0.00 82 1018.6
20260506123324 58 0.0 0.0 0.00 0.00 0.00 82 1018.6
20260506122604 58 0.0 0.0 0.00 0.00 0.00 82 1018.4
20260506122105 58 0.0 0.0 0.00 0.00 0.00 82 1018.8
20260506121605 58 0.0 0.0 0.00 0.00 0.00 83 1018.5
20260506121105 58 0.0 0.0 0.00 0.00 0.00 83 1018.7
20260506120606 58 0.0 0.0 0.00 0.00 0.00 83 1018.9
20260506120330 58 0.0 0.0 0.00 0.00 0.00 82 1018.6
20260506115831 58 0.0 0.0 0.00 0.00 0.00 83 1018.6
20260506115106 58 0.0 0.0 0.00 0.00 0.00 82 1018.6
20260506114606 58 0.0 0.0 0.00 0.00 0.00 83 1018.6
20260506114105 58 0.0 0.0 0.00 0.00 0.00 81 1018.5
20260506113604 58 0.0 0.0 0.00 0.00 0.00 82 1018.3
20260506113105 58 0.0 0.0 0.00 0.00 0.00 80 1018.4
20260506112827 58 0.0 0.0 0.00 0.00 0.00 80 1018.5
20260506112325 58 0.0 0.0 0.00 0.00 0.00 80 1018.5
20260506111605 58 0.0 0.0 0.00 0.00 0.00 81 1018.3
20260506111106 58 0.0 0.0 0.00 0.00 0.00 81 1018.2
20260506110605 58 0.0 0.0 0.00 0.00 0.00 81 1017.9
20260506110118 58 0.0 0.0 0.00 0.00 0.00 80 1018.1
20260506105826 59 0.0 0.0 0.00 0.00 0.00 81 1018.0
20260506105324 59 0.0 0.0 0.00 0.00 0.00 80 1017.8
20260506104605 59 0.0 0.0 0.00 0.00 0.00 81 1017.8
20260506104105 59 0.0 0.0 0.00 0.00 0.00 81 1017.8
20260506103605 59 0.0 0.0 0.00 0.00 0.00 80 1017.6
20260506103105 59 0.0 0.0 0.00 0.00 0.00 80 1017.7
20260506103045 59 0.0 0.0 0.00 0.00 0.00 80 1017.5
20260506102106 59 0.0 0.0 0.00 0.00 0.00 80 1017.6
20260506101607 59 0.0 0.0 0.00 0.00 0.00 80 1017.5
20260506101104 59 0.0 0.0 0.00 0.00 0.00 80 1017.4
20260506100604 59 0.0 0.0 0.00 0.00 0.00 80 1017.3
20260506100107 59 0.0 0.0 0.00 0.00 0.00 80 1017.5
20260506095605 59 0.0 0.0 0.00 0.00 0.00 80 1017.3
20260506095326 59 0.0 0.0 0.00 0.00 0.00 80 1017.2
20260506094827 59 0.0 0.0 0.00 0.00 0.00 81 1017.4
20260506094105 59 0.0 0.0 0.00 0.00 0.00 81 1017.3
20260506093606 59 0.0 0.0 0.00 0.00 0.00 81 1017.3
20260506093105 59 0.0 0.0 0.00 0.00 0.00 82 1017.2
20260506092605 59 0.0 0.0 0.00 0.00 0.00 82 1017.2
20260506092105 59 0.0 0.0 0.00 0.00 0.00 83 1017.3
20260506091605 59 0.0 0.0 0.00 0.00 0.00 82 1017.2
20260506091105 60 0.0 0.0 0.00 0.00 0.00 81 1017.1
20260506090606 60 0.0 0.0 0.00 0.00 0.00 82 1017.2
20260506090105 60 0.0 0.0 0.00 0.00 0.00 82 1017.1
20260506085605 60 0.0 0.0 0.00 0.00 0.00 81 1017.0
20260506085324 60 0.0 0.0 0.00 0.00 0.00 80 1017.1
20260506084606 60 0.0 0.0 0.00 0.00 0.00 81 1017.1
20260506084106 60 0.0 0.0 0.00 0.00 0.00 82 1017.1
20260506083828 60 0.0 0.0 0.00 0.00 0.00 82 1016.9
20260506083105 60 0.0 0.0 0.00 0.00 0.00 82 1017.1
20260506082604 60 0.0 0.0 0.00 0.00 0.00 79 1017.1
20260506082329 60 0.0 0.0 0.00 0.00 0.00 80 1017.1
20260506081605 60 0.0 0.0 0.00 0.00 0.00 80 1017.0
20260506081327 60 0.0 0.0 0.00 0.00 0.00 80 1017.1
20260506080605 60 0.0 0.0 0.00 0.00 0.00 79 1017.0
20260506080105 60 0.0 0.0 0.00 0.00 0.00 80 1017.2
20260506073105 60 0.0 0.0 0.00 0.00 0.00 81 1016.8
20260506072605 60 0.0 0.0 0.00 0.00 0.00 79 1016.7
20260506072548 60 0.0 0.0 0.00 0.00 0.00 79 1016.8
20260506071605 60 0.0 0.0 0.00 0.00 0.00 79 1016.8
20260506071105 60 0.0 0.0 0.00 0.00 0.00 79 1016.7
20260506071052 60 0.0 0.0 0.00 0.00 0.00 78 1016.6
20260506070117 60 0.0 0.0 0.00 0.00 0.00 78 1016.7